Location: Kam�li
(14.6864°N, 3.1482°W)
Time: 00:59:45
(UTC+00:00)

CZ-2C R/B - Pass Details

Date: 29 October 2020
Orbit: 391 x 586 km, 35.0° (Epoch: 02 December)

Event Time Altitude Azimuth Distance (km) Brightness Sun altitude
Rises 19:35:50 0° 237° (WSW) 2,751 5.9 -27.1°
Reaches altitude 10° 19:38:10 10° 237° (WSW) 1,831 4.8 -27.7°
Enters shadow 19:40:47 36° 240° (WSW) 867 2.7 -28.3°
